Location: Warren
(41.8440°N, 79.1450°W)
Time: 15:54:31
(UTC-05:00)

N. Korean satellite - Visible Passes

Search period start: 20 January 2018 00:00
Search period end: 30 January 2018 00:00
Orbit: 459 x 515 km, 97.2° (Epoch: 19 January)

Date Brightness Start Highest point End Pass type
(mag) Time Alt. Az. Time Alt. Az. Time Alt. Az.
20 Jan 7.3 06:48:48 10° NNE 06:52:12 55° E 06:55:35 10° S visible
20 Jan 9.3 18:59:12 10° SSW 19:02:01 21° W 19:04:50 10° NW visible
21 Jan 8.9 06:25:30 10° NE 06:28:27 26° E 06:31:24 10° SSE visible
21 Jan 7.9 18:34:50 10° S 18:38:16 42° W 18:41:40 10° NNW visible
22 Jan 9.9 06:02:51 10° ENE 06:04:38 13° E 06:06:26 10° ESE visible
22 Jan 6.5 18:11:00 10° SSE 18:14:35 89° E 18:18:08 10° NNW visible
23 Jan 6.9 17:47:35 10° SE 17:50:58 42° ENE 17:54:18 10° N visible
23 Jan 10.2 19:23:30 10° WSW 19:24:40 11° W 19:25:50 10° WNW visible
24 Jan 7.4 06:47:35 10° NNE 06:51:00 53° E 06:54:23 10° S visible
24 Jan 9.3 18:58:01 10° SSW 19:00:50 22° W 19:03:37 10° NW visible
25 Jan 9.0 06:24:19 10° NE 06:27:15 26° E 06:30:11 10° SSE visible
25 Jan 7.9 18:33:40 10° S 18:37:04 43° W 18:40:26 10° NNW visible
26 Jan 10.0 06:01:40 10° ENE 06:03:25 13° E 06:05:10 10° ESE visible
26 Jan 6.5 18:09:50 10° SSE 18:13:22 87° E 18:16:53 10° N visible
27 Jan 10.2 19:22:15 10° WSW 19:23:27 11° W 19:24:39 10° WNW visible
28 Jan 7.5 06:46:21 10° NNE 06:49:45 52° E 06:53:10 10° S visible
28 Jan 9.3 18:56:48 10° SSW 18:59:36 22° W 19:02:23 10° NW visible
29 Jan 9.1 06:23:04 10° NE 06:26:00 25° E 06:28:57 10° SSE visible
29 Jan 7.8 18:32:27 10° S 18:35:50 44° W 18:39:11 10° NNW visible
